Volver al catálogo

STARLINK-31253

ActivoComunicacionesVLEO
NORAD 58830·PAYLOAD·🇺🇸 United States

Lanzado Jan 24, 2024 desde Vandenberg Space Force Base

Loading…

Próximos Pases (próximas 24 horas)

TLE

ActualizadoSource: CelesTrak SupGP

Época: Sep 15, 2026, 02:37 UTC

1 58830C 24017E   26258.10951389 -.00016942  00000+0 -54495-3 0  2588
2 58830  53.1600  42.8142 0001235  87.2206 169.7976 15.31703159    19

Sigue STARLINK-31253 en tiempo real con AllMySat

Download on the App Store